Tahitian Princess — ZCDD8 — position and weather

sailwx.info

Track history (hours):
 
Tides and Currents Weather Stations Pressure Air Temp Water Temp Dewpoint Dewpoint Depression Visibility Wind Speed Wind Dir Waves Ship Positions

Tahitian Princess

Operator: P & O Irish Sea Ltd

Last reported at 2020-Jan-24 03:30 UTC. Time now 2020-Jan-24 06:13 UTC.
Position N 53°31' W 003°18'.

Length 167 m; draft 5.7 m.

Type: Ship (hazmat cat A). MMSI: 310362000.

Date/timePositionNaut miles runAvg speedWind from/ knotsBaromVisibWave heightAir tempDewpointWater temp
2020-Jan-24 03:30N 53°31' W 003°18'1717.3
2020-Jan-24 02:30N 53°32' W 003°48'8017.7
2020-Jan-23 21:58N 53°21' W 006°01'2 0.4
2020-Jan-23 16:30N 53°22' W 005°58'6916.7
2020-Jan-23 12:21N 53°35' W 004°04'2417.8
2020-Jan-23 11:00N 53°33' W 003°24'1515.2
2020-Jan-23 10:00N 53°27' W 003°01'1 0.2
2020-Jan-23 06:00N 53°27' W 003°01'0 0.0
2020-Jan-23 05:30N 53°27' W 003°01'11510.9
2020-Jan-22 19:01N 53°21' W 006°13'9214.3
2020-Jan-22 12:38N 53°33' W 003°41'2415.0
2020-Jan-22 11:00N 53°27' W 003°01'0 0.2
2020-Jan-22 09:00N 53°27' W 003°01'0 0.0
2020-Jan-22 08:30N 53°27' W 003°01'5 1.1
2020-Jan-22 04:01N 53°31' W 003°07'816.2
2020-Jan-22 03:30N 53°31' W 003°20'10314.8
2020-Jan-21 20:30N 53°21' W 006°13'9110.1
2020-Jan-21 11:30N 53°34' W 003°42'1717.4
2020-Jan-21 10:30N 53°31' W 003°13'8 2.7
2020-Jan-21 07:30N 53°27' W 003°01'0 0.0
2020-Jan-21 07:00N 53°27' W 003°01'4 1.5
2020-Jan-21 04:00N 53°31' W 003°06'917.2
2020-Jan-21 03:30N 53°31' W 003°21'918.1
2020-Jan-21 03:00N 53°31' W 003°36'2415.5
2020-Jan-21 01:28N 53°35' W 004°16'716.1
2020-Jan-21 01:00N 53°37' W 004°28'6315.9
2020-Jan-20 21:00N 53°21' W 006°11'1 0.5
2020-Jan-20 18:30N 53°21' W 006°13'0 0.1
2020-Jan-20 16:54N 53°21' W 006°13'0 0.0
2020-Jan-20 15:00N 53°21' W 006°13'0 0.0
2020-Jan-20 13:27N 53°21' W 006°13'0 0.0
2020-Jan-20 11:42N 53°21' W 006°13'0 0.0
2020-Jan-20 11:00N 53°21' W 006°13'0 0.0
2020-Jan-20 09:21N 53°21' W 006°13'0 0.0
2020-Jan-20 08:45N 53°21' W 006°13'0 0.1
2020-Jan-20 07:00N 53°21' W 006°13'0 0.0
2020-Jan-20 05:54N 53°21' W 006°13'0 0.0
2020-Jan-20 05:30N 53°21' W 006°13'2 3.3
2020-Jan-20 05:00N 53°21' W 006°10'2314.9
2020-Jan-20 03:27N 53°27' W 005°33'6315.7
2020-Jan-19 23:26N 53°34' W 003°48'2811.7
2020-Jan-19 21:01N 53°27' W 003°01'0 0.1
2020-Jan-19 19:00N 53°27' W 003°01'0 0.0
2020-Jan-19 18:30N 53°27' W 003°01'0 0.0
2020-Jan-19 16:30N 53°27' W 003°01'0 0.0
2020-Jan-19 13:00N 53°27' W 003°01'0 0.0
2020-Jan-19 11:00N 53°27' W 003°01'0 0.0
2020-Jan-19 10:30N 53°27' W 003°01'0 0.0
2020-Jan-19 10:00N 53°27' W 003°01'0 0.0
2020-Jan-19 08:30N 53°27' W 003°01'0 0.0
2020-Jan-19 06:30N 53°27' W 003°01'5 2.6
2020-Jan-19 04:30N 53°31' W 003°07'1818.0
2020-Jan-19 03:30N 53°31' W 003°37'8615.1
2020-Jan-18 21:48N 53°21' W 006°01'415.2
2020-Jan-18 21:30N 53°21' W 006°08'3 3.1
2020-Jan-18 20:30N 53°21' W 006°13'0 0.0
2020-Jan-18 19:30N 53°21' W 006°13'0 0.0
2020-Jan-18 18:00N 53°21' W 006°13'0 0.0
2020-Jan-18 17:30N 53°21' W 006°13'1010.0
2020-Jan-18 16:30N 53°22' W 005°57'10317.2
2020-Jan-18 10:30N 53°28' W 003°04'2 4.1
2020-Jan-18 10:01N 53°27' W 003°01'0 0.1
2020-Jan-18 06:30N 53°27' W 003°01'0 0.3
2020-Jan-18 06:00N 53°27' W 003°01'2211.0
2020-Jan-18 04:00N 53°31' W 003°38'9311.6
2020-Jan-17 20:00N 53°21' W 006°13'0 0.0
2020-Jan-17 18:30N 53°21' W 006°13'2 2.0
2020-Jan-17 17:30N 53°21' W 006°10'10617.7
2020-Jan-17 11:30N 53°31' W 003°13'8 2.7
2020-Jan-17 08:30N 53°27' W 003°01'0 0.1
2020-Jan-17 07:00N 53°27' W 003°01'19 9.7
2020-Jan-17 05:00N 53°31' W 003°33'714.7
2020-Jan-17 04:30N 53°32' W 003°46'815.3
2020-Jan-17 04:00N 53°33' W 003°58'14 1.0
2020-Jan-16 14:00N 53°33' W 003°34'1717.1
2020-Jan-16 13:01N 53°30' W 003°06'4 8.8
2020-Jan-16 12:30N 53°27' W 003°01'0 0.5
2020-Jan-16 12:00N 53°27' W 003°01'0 0.3
2020-Jan-16 11:00N 53°27' W 003°01'0 0.0
2020-Jan-16 09:30N 53°27' W 003°01'0 0.0
2020-Jan-16 08:30N 53°27' W 003°01'12 3.1
2020-Jan-16 04:30N 53°31' W 003°20'917.1
2020-Jan-16 04:01N 53°31' W 003°35'816.7
2020-Jan-16 03:31N 53°32' W 003°49'7615.1
2020-Jan-15 22:30N 53°22' W 005°55'11 4.4
2020-Jan-15 20:01N 53°21' W 006°13'0 0.0
2020-Jan-15 19:30N 53°21' W 006°13'0 0.0
2020-Jan-15 18:00N 53°21' W 006°13'8615.2
2020-Jan-15 12:22N 53°34' W 003°51'1416.5
2020-Jan-15 11:30N 53°33' W 003°27'16 8.2
2020-Jan-15 09:30N 53°27' W 003°01'0 0.0
2020-Jan-15 08:30N 53°27' W 003°01'0 0.1
2020-Jan-15 05:00N 53°27' W 003°01'13 8.5
2020-Jan-15 03:30N 53°31' W 003°21'1615.7
2020-Jan-15 02:30N 53°32' W 003°48'8316.7
2020-Jan-14 21:30N 53°20' W 006°06'4 8.1
2020-Jan-14 21:00N 53°21' W 006°13'0 0.0
2020-Jan-14 19:31N 53°21' W 006°13'0 0.0
2020-Jan-14 18:30N 53°21' W 006°13'0 0.0
2020-Jan-14 18:00N 53°21' W 006°13'0 0.0
2020-Jan-14 17:30N 53°21' W 006°13'1 2.3
2020-Jan-14 17:00N 53°21' W 006°11'8716.7
2020-Jan-14 11:47N 53°34' W 003°46'517.5
2020-Jan-14 11:30N 53°33' W 003°38'917.4
2020-Jan-14 11:00N 53°33' W 003°23'1514.6
2020-Jan-14 10:00N 53°27' W 003°01'1 0.3
2020-Jan-14 07:29N 53°27' W 003°01'0 0.0
2020-Jan-14 05:59N 53°27' W 003°01'0 0.0
2020-Jan-14 05:29N 53°27' W 003°01'  
Track history (hours):
 
Tides and Currents Weather Stations Pressure Air Temp Water Temp Dewpoint Dewpoint Depression Visibility Wind Speed Wind Dir Waves Ship Positions

Tahitian Princess

Operator: P & O Irish Sea Ltd

Last reported at 2020-Jan-24 03:30 UTC. Time now 2020-Jan-24 06:13 UTC.
Position N 53°31' W 003°18'.

Length 167 m; draft 5.7 m.

Type: Ship (hazmat cat A). MMSI: 310362000.

Date/timePositionNaut miles runAvg speedWind from/ knotsBaromVisibWave heightAir tempDewpointWater temp
2020-Jan-24 03:30N 53°31' W 003°18'1717.3
2020-Jan-24 02:30N 53°32' W 003°48'8017.7
2020-Jan-23 21:58N 53°21' W 006°01'2 0.4
2020-Jan-23 16:30N 53°22' W 005°58'6916.7
2020-Jan-23 12:21N 53°35' W 004°04'2417.8
2020-Jan-23 11:00N 53°33' W 003°24'1515.2
2020-Jan-23 10:00N 53°27' W 003°01'1 0.2
2020-Jan-23 06:00N 53°27' W 003°01'0 0.0
2020-Jan-23 05:30N 53°27' W 003°01'11510.9
2020-Jan-22 19:01N 53°21' W 006°13'9214.3
2020-Jan-22 12:38N 53°33' W 003°41'2415.0
2020-Jan-22 11:00N 53°27' W 003°01'0 0.2
2020-Jan-22 09:00N 53°27' W 003°01'0 0.0
2020-Jan-22 08:30N 53°27' W 003°01'5 1.1
2020-Jan-22 04:01N 53°31' W 003°07'816.2
2020-Jan-22 03:30N 53°31' W 003°20'10314.8
2020-Jan-21 20:30N 53°21' W 006°13'9110.1
2020-Jan-21 11:30N 53°34' W 003°42'1717.4
2020-Jan-21 10:30N 53°31' W 003°13'8 2.7
2020-Jan-21 07:30N 53°27' W 003°01'0 0.0
2020-Jan-21 07:00N 53°27' W 003°01'4 1.5
2020-Jan-21 04:00N 53°31' W 003°06'917.2
2020-Jan-21 03:30N 53°31' W 003°21'918.1
2020-Jan-21 03:00N 53°31' W 003°36'2415.5
2020-Jan-21 01:28N 53°35' W 004°16'716.1
2020-Jan-21 01:00N 53°37' W 004°28'6315.9
2020-Jan-20 21:00N 53°21' W 006°11'1 0.5
2020-Jan-20 18:30N 53°21' W 006°13'0 0.1
2020-Jan-20 16:54N 53°21' W 006°13'0 0.0
2020-Jan-20 15:00N 53°21' W 006°13'0 0.0
2020-Jan-20 13:27N 53°21' W 006°13'0 0.0
2020-Jan-20 11:42N 53°21' W 006°13'0 0.0
2020-Jan-20 11:00N 53°21' W 006°13'0 0.0
2020-Jan-20 09:21N 53°21' W 006°13'0 0.0
2020-Jan-20 08:45N 53°21' W 006°13'0 0.1
2020-Jan-20 07:00N 53°21' W 006°13'0 0.0
2020-Jan-20 05:54N 53°21' W 006°13'0 0.0
2020-Jan-20 05:30N 53°21' W 006°13'2 3.3
2020-Jan-20 05:00N 53°21' W 006°10'2314.9
2020-Jan-20 03:27N 53°27' W 005°33'6315.7
2020-Jan-19 23:26N 53°34' W 003°48'2811.7
2020-Jan-19 21:01N 53°27' W 003°01'0 0.1
2020-Jan-19 19:00N 53°27' W 003°01'0 0.0
2020-Jan-19 18:30N 53°27' W 003°01'0 0.0
2020-Jan-19 16:30N 53°27' W 003°01'0 0.0
2020-Jan-19 13:00N 53°27' W 003°01'0 0.0
2020-Jan-19 11:00N 53°27' W 003°01'0 0.0
2020-Jan-19 10:30N 53°27' W 003°01'0 0.0
2020-Jan-19 10:00N 53°27' W 003°01'0 0.0
2020-Jan-19 08:30N 53°27' W 003°01'0 0.0
2020-Jan-19 06:30N 53°27' W 003°01'5 2.6
2020-Jan-19 04:30N 53°31' W 003°07'1818.0
2020-Jan-19 03:30N 53°31' W 003°37'8615.1
2020-Jan-18 21:48N 53°21' W 006°01'415.2
2020-Jan-18 21:30N 53°21' W 006°08'3 3.1
2020-Jan-18 20:30N 53°21' W 006°13'0 0.0
2020-Jan-18 19:30N 53°21' W 006°13'0 0.0
2020-Jan-18 18:00N 53°21' W 006°13'0 0.0
2020-Jan-18 17:30N 53°21' W 006°13'1010.0
2020-Jan-18 16:30N 53°22' W 005°57'10317.2
2020-Jan-18 10:30N 53°28' W 003°04'2 4.1
2020-Jan-18 10:01N 53°27' W 003°01'0 0.1
2020-Jan-18 06:30N 53°27' W 003°01'0 0.3
2020-Jan-18 06:00N 53°27' W 003°01'2211.0
2020-Jan-18 04:00N 53°31' W 003°38'9311.6
2020-Jan-17 20:00N 53°21' W 006°13'0 0.0
2020-Jan-17 18:30N 53°21' W 006°13'2 2.0
2020-Jan-17 17:30N 53°21' W 006°10'10617.7
2020-Jan-17 11:30N 53°31' W 003°13'8 2.7
2020-Jan-17 08:30N 53°27' W 003°01'0 0.1
2020-Jan-17 07:00N 53°27' W 003°01'19 9.7
2020-Jan-17 05:00N 53°31' W 003°33'714.7
2020-Jan-17 04:30N 53°32' W 003°46'815.3
2020-Jan-17 04:00N 53°33' W 003°58'14 1.0
2020-Jan-16 14:00N 53°33' W 003°34'1717.1
2020-Jan-16 13:01N 53°30' W 003°06'4 8.8
2020-Jan-16 12:30N 53°27' W 003°01'0 0.5
2020-Jan-16 12:00N 53°27' W 003°01'0 0.3
2020-Jan-16 11:00N 53°27' W 003°01'0 0.0
2020-Jan-16 09:30N 53°27' W 003°01'0 0.0
2020-Jan-16 08:30N 53°27' W 003°01'12 3.1
2020-Jan-16 04:30N 53°31' W 003°20'917.1
2020-Jan-16 04:01N 53°31' W 003°35'816.7
2020-Jan-16 03:31N 53°32' W 003°49'7615.1
2020-Jan-15 22:30N 53°22' W 005°55'11 4.4
2020-Jan-15 20:01N 53°21' W 006°13'0 0.0
2020-Jan-15 19:30N 53°21' W 006°13'0 0.0
2020-Jan-15 18:00N 53°21' W 006°13'8615.2
2020-Jan-15 12:22N 53°34' W 003°51'1416.5
2020-Jan-15 11:30N 53°33' W 003°27'16 8.2
2020-Jan-15 09:30N 53°27' W 003°01'0 0.0
2020-Jan-15 08:30N 53°27' W 003°01'0 0.1
2020-Jan-15 05:00N 53°27' W 003°01'13 8.5
2020-Jan-15 03:30N 53°31' W 003°21'1615.7
2020-Jan-15 02:30N 53°32' W 003°48'8316.7
2020-Jan-14 21:30N 53°20' W 006°06'4 8.1
2020-Jan-14 21:00N 53°21' W 006°13'0 0.0
2020-Jan-14 19:31N 53°21' W 006°13'0 0.0
2020-Jan-14 18:30N 53°21' W 006°13'0 0.0
2020-Jan-14 18:00N 53°21' W 006°13'0 0.0
2020-Jan-14 17:30N 53°21' W 006°13'1 2.3
2020-Jan-14 17:00N 53°21' W 006°11'8716.7
2020-Jan-14 11:47N 53°34' W 003°46'517.5
2020-Jan-14 11:30N 53°33' W 003°38'917.4
2020-Jan-14 11:00N 53°33' W 003°23'1514.6
2020-Jan-14 10:00N 53°27' W 003°01'1 0.3
2020-Jan-14 07:29N 53°27' W 003°01'0 0.0
2020-Jan-14 05:59N 53°27' W 003°01'0 0.0
2020-Jan-14 05:29N 53°27' W 003°01'  

Dump ship's entire track history